STARLINK-3740

operational
NORAD ID: 52265 Int'l Des: 2022-041 Owner: SPXS Country: US Constellation: starlink
LEOCIRCULAR

Über STARLINK-3740

Beschreibung wird geladen...

Live-Position

3D-Globus wird geladen...

Nächste Überflüge

Höhenverlauf

Altitude vs Time

uPlot chart will show altitude changes over time

Zweizeiliger Elementsatz

1 52265U 22041E 25251.27941702 -.00000624 00000-0 -21111-4 0 9990
2 52265 53.2164 207.9914 0001410 96.9750 263.1403 15.08832927186826
Epoch: 8. Sept. 2025 • Age: 13 hours

Aktueller Status

Höhe 542.5 km
Geschwindigkeit 7.60 km/s
Subsatellitenpunkt 38.99°N, 40.32°W
Startdatum 21. Apr. 2022
Alter 3.3 years
Typ internet

Technische Details

Klassifizierung Payload
Masse 297.00 kg
Trockenmasse 275.00 kg
Gesamtmasse 297.00 kg
Länge 0.20 m
Durchmesser 2.80 m
Spannweite 9.00 m
Form Box + pan
Hersteller SPXS
Bus-Typ Starlink
Phasenstatus In Orbit
Besitzer/Staat SPXS/US

Große Konstellationen

Loading constellations...